Regional Weather Roundup
Issued by NWS

Home | Current Version | Previous Version | Text Only | Print | Product List | Glossary On
Versions: 1 2 3 4 5 6 7 8 9 10 11 12 13 14 15 16 17 18 19 20 21 22 23 24 25 26 27 28 29 30 31 32 33 34 35 36 37 38 39 40 41 42 43 44 45 46 47 48 49 50
000
ASUS43 KDMX 191306
RWRIA

WEATHER ROUNDUP FOR IOWA
NATIONAL WEATHER SERVICE DES MOINES IA
800 AM CDT SAT AUG 19 2017

NOTE: "FAIR" INDICATES FEW OR NO CLOUDS BELOW 12,000 FEET WITH NO
SIGNIFICANT WEATHER AND/OR OBSTRUCTIONS TO VISIBILITY.

* - THESE STATIONS ARE NOT NWS STATIONS...THUS NOT UNDER NWS
QUALITY CONTROL.  THEY ALSO DO NOT REPORT WEATHER SUCH
AS PRECIPITATION OR FOG.

IAZ001>003-012>014-020>022-031>034-043>046-191400-
   NORTHWEST IOWA

CITY           SKY/WX    TMP DP  RH WIND       PRES   REMARKS
CARROLL *      FOG       61  61 100 N7        29.96S VSB<1/4
CHEROKEE *     FOG       57  57 100 CALM      29.99R VSB<1/4
DENISON *      SUNNY     59  59 100 CALM      29.99S FOG
LE MARS *      FOG       57  57 100 N5        29.98S VSB<1/4
ORANGE CITY *  FOG       59  59 100 CALM      29.99S VSB<1/4
SHELDON *      FOG       55  55 100 CALM      29.98S VSB<1/4
SIOUX CITY     SUNNY     59  59 100 W3        29.98R
SPENCER        FOG       56  55  97 W3        29.99R VSB<1/4
STORM LAKE *   FOG       57  57 100 N3        29.98S VSB<1/4
$$

IAZ055>058-069>071-079>083-090>094-191400-
   SOUTHWEST IOWA

CITY           SKY/WX    TMP DP  RH WIND       PRES   REMARKS
ATLANTIC *     SUNNY     61  59  94 CALM      29.97R
AUDUBON *      SUNNY     63  59  88 W3        29.98R
CLARINDA *     SUNNY     61  61 100 CALM      29.99S FOG
COUNCIL BLFS * SUNNY     61  61 100 CALM      29.98S
CRESTON *      SUNNY     63  63 100 W7        29.98R
HARLAN  *      SUNNY     59  59 100 CALM      30.01R FOG
LAMONI         SUNNY     66  64  93 NW3       29.96R
RED OAK *      SUNNY     61  61 100 CALM      29.97S
SHENANDOAH *   SUNNY     63  61  94 CALM      29.98R
$$

IAZ047>049-059>061-072>074-084-191400-
   CENTRAL IOWA

CITY           SKY/WX    TMP DP  RH WIND       PRES   REMARKS
AMES           PTSUNNY   63  63 100 E3        29.95S
ANKENY *       PTSUNNY   63  61  94 CALM      29.96S
BOONE *        PTSUNNY   64  63  94 E3        29.95S
CHARITON *     SUNNY     66  64  94 S8        29.95R
DES MOINES     PTSUNNY   67  62  84 CALM      29.94R
GRINNELL*      CLOUDY    63  60  91 CALM      29.98R
KNOXVILLE *    SUNNY     66  63  88 SE6       29.93S
MARSHALLTOWN   CLOUDY    63  62  97 E3        29.96R
NEWTON *       CLOUDY    63  61  94 NE5       29.96R
PELLA *        SUNNY     65  62  88 CALM      29.96R
PERRY *        CLOUDY    65  64  99 CALM      29.96R
$$

IAZ004>006-015-016-023>025-035-036-191400-
   NORTH CENTRAL IOWA

CITY           SKY/WX    TMP DP  RH WIND       PRES   REMARKS
ALGONA *       SUNNY     59  59 100 CALM      29.98S
CLARION *      SUNNY     63  63 100 CALM      29.97S
ESTHERVILLE    SUNNY     56  56 100 CALM      29.97F
FORT DODGE *   MOSUNNY   61  57  88 CALM      29.98R
MASON CITY     SUNNY     60  58  92 CALM      29.99R
FOREST CITY *    N/A     59  59 100 CALM      29.98F
WEBSTER CITY * PTSUNNY   63  61  94 CALM      29.95R
IOWA FALLS *   PTSUNNY   61  61  98 CALM      29.97S
$$

IAZ007>011-017>019-026>030-037>042-050>054-066-191400-
   NORTHEAST IOWA

CITY           SKY/WX    TMP DP  RH WIND       PRES   REMARKS
CEDAR RAPIDS   SUNNY     61  61 100 CALM      29.97R
CHARLES CITY * MOSUNNY   59  59 100 CALM      29.99R
CLINTON *      MOSUNNY   63  61  93 CALM      29.98R
DECORAH *      SUNNY     55  55 100 CALM      29.98R
DUBUQUE        SUNNY     64  61  90 CALM      29.98R
MONTICELLO *   SUNNY     61  61 100 CALM      29.97S
OELWEIN *      SUNNY     61  61 100 CALM      29.98S
WATERLOO       MOSUNNY   61  59  93 CALM      29.96R
$$

IAZ064-065-067-068-078-191400-
   EAST CENTRAL IOWA

CITY           SKY/WX    TMP DP  RH WIND       PRES   REMARKS
DAVENPORT      SUNNY     65  61  87 CALM      29.98R
IOWA CITY      SUNNY     66  61  84 CALM      29.98R
MT. PLEASANT * MOSUNNY   67  64  91 S3        29.96R
MUSCATINE *    CLOUDY    64  64 100 CALM      29.97S
QUAD CITIES    SUNNY     66  62  87 CALM      29.96R
$$

IAZ062-063-075>077-085>089-095>099-191400-
   SOUTHEAST IOWA

CITY           SKY/WX    TMP DP  RH WIND       PRES   REMARKS
BURLINGTON     MOSUNNY   68  62  81 E5        29.95R
FAIRFIELD *    PTSUNNY   66  61  82 S3        29.95R
FORT MADISON * SUNNY     66  64  94 CALM      29.96R
KEOKUK *       SUNNY     68  63  83 SE6G13    29.94S
OSKALOOSA *      N/A     65  62  91 SE5       29.96S
CENTERVILLE *    N/A     64  64 100 CALM      29.96F
OTTUMWA        SUNNY     66  63  90 SE6       29.95R
WASHINGTON *   SUNNY     66  64  94 CALM      29.96S
$$

ABBREVIATIONS USED IN REMARKS
   TC - TEMPERATURES IN CELSIUS
  WCI - WIND CHILL INDEX
   HX - HEAT INDEX
  VSB - VISIBILITY
$$




USA.gov is the U.S. government's official web portal to all federal, state and local government web resources and services.